Regional Weather Roundup
Issued by NWS

Home | Current Version | Previous Version | Graphics & Text | Print | Product List | Glossary On
Versions: 1 2 3 4 5 6 7 8 9 10 11 12 13 14 15 16 17 18 19 20 21 22 23 24 25 26 27 28 29 30 31 32 33 34 35 36 37 38 39 40 41 42 43 44 45 46 47 48 49 50
000
ASUS45 KBOU 250007
RWRCO

WEATHER ROUNDUP FOR COLORADO
NATIONAL WEATHER SERVICE DENVER/BOULDER CO
500 PM MST FRI FEB 24 2017

NOTE: "FAIR" INDICATES FEW OR NO CLOUDS BELOW 12000 FEET WITH NO
SIGNIFICANT WEATHER AND/OR OBSTRUCTIONS TO VISIBILITY.

COZ001>005-013-030-031-250100-
...NORTHWEST COLORADO...

CITY           SKY/WX    TMP DP  RH WIND       PRES   REMARKS
CRAIG          FAIR      24   8  50 NW9       29.98R WCI  14
HAYDEN         FAIR      21   7  53 NW9       29.95R WCI  11
MEEKER         CLOUDY    22  14  71 E7        29.95R WCI  13
MOUNT WERNER   NOT AVBL
STEAMBOAT SPGS CLOUDY    23   8  54 CALM      29.93R
WALDEN         NOT AVBL
$$

COZ006>008-011-250100-
...WEST CENTRAL VALLEYS...

CITY           SKY/WX    TMP DP  RH WIND       PRES   REMARKS
GRAND JUNCTION FAIR      32  14  47 N8        29.99R WCI  25
MONTROSE       FLURRIES  25  21  85 E7        30.00F WCI  17
EAGLE          MOCLDY    27  10  50 SW14      29.91R WCI  15
RIFLE          LGT SNOW  26  21  81 SW8       29.98R WCI  18
DELTA          CLOUDY    36  10  35 SW16      29.97R
NUCLA          CLOUDY    32   9  37 N14       30.00S WCI  22
$$

COZ017>023-064>068-250100-
...SOUTHWEST COLORADO...

CITY           SKY/WX    TMP DP  RH WIND       PRES   REMARKS
DURANGO        FAIR      29   8  41 W18G28    29.93S WCI  16
CORTEZ         CLOUDY    33  15  47 N8        29.97S WCI  26
PAGOSA SPRINGS FAIR      28   1  31 SW15G24   29.90R WCI  16
TELLURIDE      CLOUDY    15   8  73 W12       29.90R WCI   2
WOLF CREEK PAS LGT SNOW   3   1  92 SW24G32   29.81S WCI -20
$$

COZ009-010-012-014-032>034-037-058>063-250100-
...CENTRAL COLORADO...

CITY           SKY/WX    TMP DP  RH WIND       PRES   REMARKS
ASPEN          FLURRIES  19  10  68 NW14      29.86R WCI   6
BUENA VISTA    MOCLDY    23  -3  32 W7        29.84R WCI  15
COPPER MTN     LGT SNOW   7   0  72 MISG      29.72R
BERTHOUD PASS  CLOUDY    -4 -15  59 NW23      29.68R WCI -29
COTTONWOOD PAS CLOUDY    18   1  49 NW6       29.79S WCI   9
GUNNISON       FAIR      20  11  68 W14       29.90R WCI   7
KREMMLING      CLOUDY    25   7  46 NW12      29.90R WCI  14
LEADVILLE      FLURRIES   9   1  70 CALM      29.78R
MONARCH PASS   LGT SNOW   3   0  85 W25G33    29.84R WCI -20
SALIDA         FAIR      27   0  30 W8        29.93R WCI  19
SUNLIGHT       NOT AVBL
WILKERSON PASS CLOUDY     9  -9  43 W8        29.77R WCI  -4
$$

COZ069>075-250100-
...SAN LUIS VALLEY/SANGRE DE CRISTO MOUNTAINS...

CITY           SKY/WX    TMP DP  RH WIND       PRES   REMARKS
ALAMOSA        CLOUDY    28   7  41 W14G23    29.86R WCI  17
LA VETA PASS   SNOW      12  10  92 SW10      29.81R VSB 1/2 WCI  -1
SAGUACHE       FAIR      25   3  39 NW13      29.86R WCI  13
$$

COZ035-036-038>040-250100-
...NORTHERN COLORADO FRONT RANGE...

CITY           SKY/WX    TMP DP  RH WIND       PRES   REMARKS
DENVER INTL AP CLOUDY    23  14  68 NE6       29.97R WCI  16
DMNS CITY PARK   N/A     24  12  59 NE7       29.98R WCI  16
AURORA         MOCLDY    23  12  62 NE3       29.97R
FRONT RANGE AP NOT AVBL
ERIE MUNI ARPT FAIR      26  15  63 CALM      29.99R
BOULDER MUN AP MOCLDY    25  18  74 CALM      29.97S
CENTENNIAL     CLOUDY    22  11  62 CALM      29.95R
BROOMFIELD     MOCLDY    25  16  68 CALM      29.97R
FORT COLLINS   CLOUDY    25  16  68 SE6       30.00R WCI  18
LONGMONT       FAIR      26  19  75 W3        30.02R
$$

COZ041-046-047-076>085-087-088-250100-
...PIKES PEAK/PALMER DIVIDE AND SOUTHERN FOOTHILLS...

CITY           SKY/WX    TMP DP  RH WIND       PRES   REMARKS
COLO. SPRINGS  FLURRIES  24  14  65 E6        29.94R WCI  17
A. F. ACADEMY  FLURRIES  21  16  79 CALM      29.90S
SCHRIEVER AFB  FAIR      23  11  60 E5        29.94  WCI  16
ELLICOTT       FAIR     N/A N/A N/A NE5       29.92R
FALCON         MOCLDY    21  11  64 E5        29.92R WCI  15
FORT CARSON    NOT AVBL
LIMON          CLOUDY    22  13  68 N7        29.99R WCI  13
MONUMENT HILL  CLOUDY    18  10  73 N5        29.91R WCI  11
TRINIDAD       FAIR      31   9  39 E8        29.92R WCI  23
$$

COZ042>045-048>051-090-091-250100-
...NORTHEAST COLORADO...

CITY           SKY/WX    TMP DP  RH WIND       PRES   REMARKS
GREELEY ARPT   CLOUDY    25  17  72 NE6       30.03R WCI  18
AKRON          CLOUDY    22  17  81 N6        30.01R WCI  14
BURLINGTON     CLOUDY    27  16  63 N10       30.02R WCI  17
WRAY           NOT AVBL
STERLING       FAIR      25  19  80 CALM      30.03S
HOLYOKE        FAIR      28  19  69 N7        30.05R WCI  21
FORT MORGAN    CLOUDY    24  17  73 N3        30.03R
$$

COZ086-089-092>099-250100-
...SOUTHEAST COLORADO...

CITY           SKY/WX    TMP DP  RH WIND       PRES   REMARKS
PUEBLO         FAIR      34   9  35 S5        29.96R WCI  30
LA JUNTA       FAIR      34  11  38 NE9       29.99R WCI  27
LAMAR          FAIR      34  12  40 NE10      30.00R WCI  26
SPRINGFIELD      N/A     31  11  43 N9        29.98R WCI  23
$$



USA.gov is the U.S. government's official web portal to all federal, state and local government web resources and services.